Location: Kershaw
(34.5481°N, 80.5823°W)
Time: 21:29:22
(UTC+00:00)

A-11 Canister half - Pass Details

Date: 08 October 2022
Orbit: 1524 x 1684 km, 47.3° (Epoch: 01 December)

Event Time Altitude Azimuth Distance (km) Brightness Sun altitude
Rises 02:04:56 0° 304° (NW) 4,714 12.4 -38.6°
Reaches altitude 10° 02:07:58 10° 302° (WNW) 3,744 11.7 -39.2°
Enters shadow 02:16:25 65° 253° (WSW) 1,724 9.2 -40.8°
